| time (UTC) | temp F | wind direction | speed knots | gust knots | rain 1hr in | rain 24hr in | rain mn in | humidity % | barometer mb |
| 20260502194605 | 68 | 189 | 4.3 | 10.4 | 0.00 | 0.00 | 0.00 | 32 | 1012.0 |
| 20260502193116 | 68 | 173 | 3.5 | 7.8 | 0.00 | 0.00 | 0.00 | 33 | 1012.4 |
| 20260502191603 | 67 | 265 | 2.6 | 10.4 | 0.00 | 0.00 | 0.00 | 34 | 1012.8 |
| 20260502190058 | 66 | 194 | 3.5 | 8.7 | 0.00 | 0.00 | 0.00 | 33 | 1013.2 |
| 20260502184604 | 65 | 318 | 4.3 | 12.2 | 0.00 | 0.00 | 0.00 | 32 | 1013.4 |
| 20260502183102 | 64 | 263 | 3.5 | 7.8 | 0.00 | 0.00 | 0.00 | 34 | 1013.7 |
| 20260502181603 | 64 | 269 | 3.5 | 8.7 | 0.00 | 0.00 | 0.00 | 33 | 1014.1 |
| 20260502163101 | 60 | 180 | 2.6 | 7.8 | 0.00 | 0.00 | 0.00 | 35 | 1015.7 |
| 20260502161556 | 58 | 166 | 2.6 | 9.6 | 0.00 | 0.00 | 0.00 | 37 | 1015.9 |
| 20260502151614 | 54 | 200 | 2.6 | 6.1 | 0.00 | 0.00 | 0.00 | 43 | 1017.0 |
| 20260502123101 | 33 | 0 | 0.0 | 0.9 | 0.00 | 0.00 | 0.00 | 79 | 1018.2 |
| 20260502121601 | 33 | 0 | 0.0 | 0.0 | 0.00 | 0.00 | 0.00 | 79 | 1018.2 |
| 20260502114559 | 32 | 0 | 0.0 | 0.0 | 0.00 | 0.00 | 0.00 | 76 | 1018.2 |
| 20260502113111 | 32 | 0 | 0.0 | 0.0 | 0.00 | 0.00 | 0.00 | 76 | 1018.2 |
| 20260502111601 | 32 | 0 | 0.0 | 1.7 | 0.00 | 0.00 | 0.00 | 76 | 1018.1 |
| 20260502110100 | 32 | 0 | 0.0 | 0.0 | 0.00 | 0.00 | 0.00 | 75 | 1018.1 |
| 20260502104609 | 33 | 0 | 0.0 | 0.0 | 0.00 | 0.00 | 0.00 | 75 | 1018.1 |
| 20260502103059 | 33 | 0 | 0.0 | 0.0 | 0.00 | 0.00 | 0.00 | 76 | 1018.1 |
| 20260502101610 | 33 | 0 | 0.0 | 0.0 | 0.00 | 0.00 | 0.00 | 75 | 1018.1 |
| 20260502090109 | 34 | 0 | 0.0 | 0.0 | 0.00 | 0.00 | 0.00 | 72 | 1017.9 |
| 20260502070115 | 37 | 0 | 0.0 | 0.0 | 0.00 | 0.00 | 0.00 | 63 | 1018.4 |
| 20260502064558 | 38 | 0 | 0.0 | 0.0 | 0.00 | 0.00 | 0.00 | 61 | 1018.4 |
| 20260502063123 | 39 | 0 | 0.0 | 0.0 | 0.00 | 0.00 | 0.00 | 60 | 1018.5 |
| 20260502061558 | 39 | 0 | 0.0 | 0.0 | 0.00 | 0.00 | 0.00 | 59 | 1018.5 |
| 20260502060059 | 40 | 0 | 0.0 | 0.0 | 0.00 | 0.00 | 0.00 | 58 | 1018.5 |
| 20260502054612 | 41 | 0 | 0.0 | 0.0 | 0.00 | 0.00 | 0.00 | 58 | 1018.4 |
| 20260502053057 | 41 | 0 | 0.0 | 0.0 | 0.00 | 0.00 | 0.00 | 57 | 1018.5 |
| 20260502051557 | 41 | 0 | 0.0 | 0.9 | 0.00 | 0.00 | 0.00 | 56 | 1018.5 |
| 20260502050100 | 41 | 0 | 0.0 | 0.9 | 0.00 | 0.00 | 0.00 | 55 | 1018.5 |
| 20260502044559 | 42 | 0 | 0.0 | 0.9 | 0.00 | 0.00 | 0.00 | 55 | 1018.6 |
| 20260502043113 | 42 | 0 | 0.0 | 1.7 | 0.00 | 0.00 | 0.00 | 55 | 1018.7 |
| 20260502041622 | 42 | 0 | 0.0 | 2.6 | 0.00 | 0.00 | 0.00 | 54 | 1018.5 |
| 20260502040101 | 43 | 0 | 0.0 | 0.9 | 0.00 | 0.00 | 0.00 | 51 | 1018.6 |
| 20260502034558 | 44 | 0 | 0.0 | 0.0 | 0.00 | 0.00 | 0.00 | 49 | 1018.7 |
| 20260502033057 | 44 | 0 | 0.0 | 0.0 | 0.00 | 0.00 | 0.00 | 49 | 1018.6 |
| 20260502031603 | 45 | 0 | 0.0 | 0.0 | 0.00 | 0.00 | 0.00 | 48 | 1018.6 |
| 20260502030118 | 46 | 0 | 0.0 | 0.0 | 0.00 | 0.00 | 0.00 | 46 | 1018.4 |
| 20260502024605 | 46 | 0 | 0.0 | 0.0 | 0.00 | 0.00 | 0.00 | 45 | 1018.4 |
| 20260502023137 | 47 | 0 | 0.0 | 0.0 | 0.00 | 0.00 | 0.00 | 44 | 1018.4 |
| 20260502021601 | 48 | 0 | 0.0 | 0.0 | 0.00 | 0.00 | 0.00 | 43 | 1018.3 |
| 20260502020104 | 49 | 0 | 0.0 | 1.7 | 0.00 | 0.00 | 0.00 | 43 | 1018.3 |
| 20260502014607 | 50 | 0 | 0.0 | 0.0 | 0.00 | 0.00 | 0.00 | 36 | 1018.1 |
| 20260502013102 | 51 | 0 | 0.0 | 0.0 | 0.00 | 0.00 | 0.00 | 35 | 1018.0 |
| 20260502011608 | 52 | 0 | 0.0 | 1.7 | 0.00 | 0.00 | 0.00 | 34 | 1018.0 |
| 20260502010057 | 52 | 0 | 0.0 | 1.7 | 0.00 | 0.00 | 0.00 | 34 | 1017.8 |
| 20260502004558 | 53 | 0 | 0.0 | 1.7 | 0.00 | 0.00 | 0.00 | 33 | 1017.7 |
| 20260502003056 | 53 | 279 | 0.0 | 3.5 | 0.00 | 0.00 | 0.00 | 34 | 1017.7 |
| 20260502001602 | 53 | 0 | 0.0 | 3.5 | 0.00 | 0.00 | 0.00 | 33 | 1017.7 |
| 20260502000110 | 54 | 260 | 0.0 | 6.1 | 0.00 | 0.00 | 0.00 | 32 | 1017.7 |
| 20260501234558 | 55 | 321 | 1.7 | 4.3 | 0.00 | 0.00 | 0.00 | 30 | 1017.8 |
| 20260501233117 | 55 | 221 | 1.7 | 5.2 | 0.00 | 0.00 | 0.00 | 31 | 1017.7 |
| 20260501231627 | 55 | 0 | 0.0 | 2.6 | 0.00 | 0.00 | 0.00 | 32 | 1017.9 |
| 20260501230122 | 54 | 355 | 0.9 | 5.2 | 0.00 | 0.00 | 0.00 | 32 | 1017.8 |
| 20260501224606 | 55 | 30 | 1.7 | 4.3 | 0.00 | 0.00 | 0.00 | 30 | 1017.9 |
| 20260501223059 | 56 | 343 | 0.9 | 4.3 | 0.00 | 0.00 | 0.00 | 30 | 1017.9 |
| 20260501221611 | 57 | 13 | 1.7 | 7.0 | 0.00 | 0.00 | 0.00 | 32 | 1018.0 |
| 20260501220106 | 56 | 0 | 2.6 | 7.0 | 0.00 | 0.00 | 0.00 | 30 | 1018.0 |
| 20260501214559 | 56 | 355 | 0.9 | 7.8 | 0.00 | 0.00 | 0.00 | 31 | 1018.1 |
| 20260501213056 | 55 | 260 | 3.5 | 7.0 | 0.00 | 0.00 | 0.00 | 31 | 1018.2 |
| 20260501211558 | 55 | 11 | 0.0 | 5.2 | 0.00 | 0.00 | 0.00 | 32 | 1018.3 |
| 20260501210100 | 55 | 292 | 2.6 | 6.1 | 0.00 | 0.00 | 0.00 | 32 | 1018.3 |
| 20260501204600 | 56 | 5 | 2.6 | 9.6 | 0.00 | 0.00 | 0.00 | 32 | 1018.5 |
| 20260501203058 | 55 | 279 | 2.6 | 7.0 | 0.00 | 0.00 | 0.00 | 36 | 1018.5 |
| 20260501201600 | 56 | 271 | 4.3 | 8.7 | 0.00 | 0.00 | 0.00 | 33 | 1018.7 |
| 20260501200100 | 55 | 340 | 2.6 | 6.1 | 0.00 | 0.00 | 0.00 | 36 | 1018.8 |